Location: Unspecified
(0.0000°N, 0.0000°E)
Time: 19:27:34
(UTC+00:00)

deb Alouette 1 - Visible Passes

Search period start: 09 October 2024 00:00
Search period end: 19 October 2024 00:00
Orbit: 981 x 1029 km, 80.4° (Epoch: 09 October)

Date Brightness Start Highest point End Pass type
(mag) Time Alt. Az. Time Alt. Az. Time Alt. Az.
09 Oct ? 03:35:19 10° SSE 03:41:16 38° E 03:47:09 10° NNE visible
09 Oct ? 05:23:12 10° SW 05:27:17 17° W 05:31:21 10° NW visible
10 Oct ? 04:09:03 10° S 04:15:33 81° W 04:21:58 10° N visible
11 Oct ? 02:58:51 10° SE 03:03:46 23° E 03:08:38 10° NE visible
11 Oct ? 04:44:18 10° SW 04:49:48 30° W 04:55:17 10° NNW visible
12 Oct ? 03:31:40 10° S 03:38:04 62° E 03:44:23 10° NNE visible
13 Oct ? 02:23:33 10° ESE 02:26:15 13° E 02:28:56 10° ENE visible
13 Oct ? 04:06:06 10° SSW 04:12:20 50° W 04:18:29 10° N visible
14 Oct ? 02:54:41 10° SSE 03:05:09 16° NE 03:06:23 10° NNE visible
14 Oct ? 04:50:43 10° NW 04:50:43 10° NW 04:50:45 10° NW visible
15 Oct ? 03:28:21 10° S 03:42:05 - N 03:28:39 11° S visible
